User: anonymous   Login
Location: Unspecified
(0.0000°N, 0.0000°E)
Time: 19:05:21
(UTC+00:00)
Language:

OBJECT-A - Orbit

View from above orbital plane
View from above orbital plane
View from above satellite
View from above satellite

Ground track
Ground track

The orbit data is extracted from the following two-line orbital elements,

1 40381U 15004A   19076.86661152 0.00000000  00000-0  00000-0 0    07
2 40381  97.3503 149.2679 0002000  78.8805 281.1193 15.27650435    04
Epoch (UTC): 17 March 2019 20:47:55
Eccentricity: 0.0002000
inclination: 97.3503°
perigee height: 481 km
apogee height: 484 km
right ascension of ascending node: 149.2679°
argument of perigee: 78.8805°
revolutions per day: 15.27650435
mean anomaly at epoch: 281.1193°
orbit number at epoch: 0

The dashed part of the orbit path shows where the satellite is in the earth's shadow,  

DLR